Location: *
(49.6833°N, 5.1500°E)
Time: 14:53:04
(UTC+00:00)

Daily predictions for brighter satellites

Satellite Brightness Start Highest point End
(mag) Time Altitude Azimuth Time Altitude Azimuth Time Altitude Azimuth
COSMOS 2455 3.0 18:10:52 10° NW 18:16:57 86° SW 18:22:57 10° SSE
CZ-4C R/B 3.8 18:12:00 10° W 18:17:03 35° NNW 18:23:00 10° NE
Cosmos 2237 Rocket 3.2 18:14:09 10° NNW 18:19:09 30° NE 18:24:08 10° ESE
FREGAT/IRIS 3.3 18:21:08 10° SE 18:23:39 30° ENE 18:26:11 10° N
Cosmos 2154 Rocket 4.3 18:17:41 10° N 18:23:40 47° ENE 18:29:37 10° SSE
Cosmos 1441 Rocket 4.1 18:21:13 10° SSE 18:24:27 27° E 18:27:41 10° NE
USA 32 4.1 18:21:32 10° N 18:26:49 88° E 18:32:03 10° S
ERBS 4.1 18:25:02 10° NW 18:27:52 23° N 18:30:40 10° ENE
Cosmos 1980 4.5 18:22:59 10° NNW 18:28:09 35° NE 18:33:17 10° ESE
Cosmos 389 Rocket 4.0 18:28:15 10° NNE 18:30:42 18° ENE 18:33:05 10° ESE
DMSP B5D1-3 4.5 18:30:53 10° NNE 18:36:01 81° ESE 18:41:07 10° SSW
SL-8 R/B 4.1 18:31:48 10° SW 18:36:22 45° SSE 18:40:55 10° E
Cosmos 2184 Rocket 4.1 18:33:05 10° N 18:39:21 90° SSE 18:45:37 10° S
MONITOR-E 3.8 18:37:08 10° SSE 18:39:56 80° ENE 18:42:45 10° N
Aureole 1 Rocket 3.4 18:34:43 10° NNW 18:40:28 90° NE 18:44:44 10° SSE
SJ-6B 3.4 18:38:43 10° SE 18:42:36 41° ENE 18:46:27 10° N
CZ-2C R/B 4.3 18:39:01 11° ESE 18:43:02 25° ENE 18:47:24 10° N
Cosmos 1707 3.3 18:40:15 10° N 18:43:57 39° ENE 18:47:39 10° SE
MOS 1 4.3 18:38:20 10° SSE 18:44:01 76° ENE 18:49:44 10° NNW
Ariane Rocket 3.3 18:39:31 10° S 18:44:34 74° WSW 18:49:41 10° NNW
Cosmos 1378 3.9 18:41:05 10° NNW 18:44:47 56° W 18:48:28 10° S
Resurs 01 Rocket 3.1 18:42:02 12° ESE 18:44:51 21° ENE 18:48:10 10° NNE
Okean 1 Rocket 3.3 18:40:48 10° SSE 18:44:56 46° E 18:49:07 10° NNE
Meteor 1-4 Rocket 3.9 18:43:21 10° NNE 18:46:08 21° ENE 18:47:52 15° ESE
Okean 2 Rocket 4.2 18:43:21 10° SSW 18:47:42 51° WNW 18:52:08 10° N
SL-16 R/B 3.6 18:43:35 10° NNW 18:48:04 23° NE 18:51:53 12° E
Cosmos 1939 Rocket 3.4 18:45:06 10° S 18:48:54 60° W 18:52:45 10° NNW
GP-B 3.1 18:45:46 10° N 18:50:14 86° E 18:54:41 10° S
NOSS 3-4 (A) 3.9 18:45:01 10° NW 18:51:54 75° NE 18:59:02 12° SE
NOSS 3-4 (C) 3.9 18:45:07 10° NW 18:52:01 75° NE 18:59:07 12° SE
USA 186 2.0 18:49:00 10° SSE 18:52:18 54° ENE 18:55:40 10° N
Cosmos 407 Rocket 3.9 18:49:23 10° NNW 18:54:19 43° ENE 18:58:21 15° SE
COSMOS 2428 2.9 18:52:02 10° NNW 18:57:44 78° WSW 19:03:24 10° SSE
Cosmos 2219 Rocket 2.3 18:52:28 10° NNW 18:58:05 79° WSW 19:03:41 10° SSE
Cosmos 614 Rocket 4.4 18:53:02 10° NNW 18:58:06 45° ENE 19:02:02 16° SE
SJ-11-01 4.3 18:56:35 10° SSE 19:01:19 80° ENE 19:06:06 10° NNW
HJ-1C 4.3 18:58:37 10° S 19:01:55 51° W 19:05:14 10° NNW
NOSS 3-3 (A) 4.0 18:56:30 10° SW 19:02:32 87° NW 19:09:21 10° NE
NOSS 3-3 (C) 4.0 18:56:36 10° SW 19:02:38 88° NW 19:09:27 10° NE
Meteor 1-12 Rocket 4.3 19:02:25 10° SSW 19:08:10 86° WNW 19:13:53 10° NNE
SPOT 3 Rocket 3.5 19:03:05 10° SSE 19:08:13 75° ENE 19:13:23 10° NNW
Cosmos 2360 Rocket 4.4 19:04:24 10° NW 19:08:55 25° WSW 19:13:25 10° SSW
Cosmos 1025 Rocket 4.2 19:05:10 10° NNW 19:09:15 44° W 19:13:17 10° SSW
Nadezhda 1 Rocket 3.9 19:07:22 10° S 19:13:27 88° W 19:19:35 10° N
Cosmos 962 Rocket 4.5 19:08:30 10° N 19:14:48 71° ENE 19:21:08 10° SSE
CZ-2C R/B 4.4 19:11:52 10° NE 19:14:19 15° ENE 19:14:19 15° ENE
Meteor 1-15 Rocket 4.5 19:10:45 10° SSE 19:16:15 50° E 19:21:54 10° NNE
Timation 2 Rocket 4.2 19:10:10 10° SSW 19:16:46 80° WNW 19:23:07 10° NNE
USA 234 4.0 19:11:05 10° ENE 19:17:19 48° N 19:23:33 10° WNW
Cosmos 1892 Rocket 3.7 19:13:29 10° N 19:17:53 53° ENE 19:20:44 20° SSE
Okean 1-7 Rocket 3.7 19:15:18 10° N 19:19:41 56° ENE 19:22:37 20° SSE
NOSS 0 Rocket 4.0 19:14:50 10° NNW 19:21:05 86° WSW 19:26:27 14° SSE
Spot 2 Rocket 4.4 19:20:07 23° E 19:22:04 30° ENE 19:26:26 10° N
Cosmos 2219 3.4 19:17:41 10° S 19:23:09 46° ESE 19:28:37 10° NE
Cosmos 1295 Rocket 4.4 19:17:05 10° N 19:23:20 90° ESE 19:29:28 10° S
Cosmos 1140 Rocket 3.7 19:19:22 10° NNW 19:24:28 51° ENE 19:27:07 26° SE
Cosmos 2227 Rocket 2.9 19:19:54 10° SSE 19:24:41 29° ESE 19:29:30 10° NE
ADEOS Rocket 3.6 19:19:13 10° NNE 19:26:18 55° E 19:33:49 10° S
CZ-2C R/B 3.7 19:26:50 10° NNE 19:31:20 79° WNW 19:35:45 10° SSW
Cosmos 1437 Rocket 3.4 19:28:17 10° N 19:31:47 33° ENE 19:32:05 33° E
Cosmos 1371 Rocket 4.1 19:28:05 10° S 19:33:12 51° ESE 19:38:24 10° NNE
RESURS DK-1 4.2 19:32:03 10° N 19:34:50 17° NE 19:35:39 16° NE
ATLAS 2AS CENTAUR R/B 3.5 19:28:02 10° NW 19:35:29 54° WSW 19:41:52 12° SSE
Cosmos 2297 Rocket 2.6 19:30:34 10° S 19:35:41 37° ESE 19:40:50 10° NE
ARGOS 3.1 19:31:11 14° SSE 19:35:51 87° ENE 19:41:17 10° NNW
H-2A R/B 2.0 19:35:31 15° SSE 19:39:41 83° WSW 19:44:44 10° NNW
Cosmos 405 Rocket 2.5 19:40:22 42° SSE 19:41:20 59° E 19:44:59 10° NNE
Cosmos 1626 4.4 19:40:39 10° NNE 19:41:29 12° NE 19:41:29 12° NE
Cosmos 676 Rocket 4.0 19:40:51 10° NNW 19:46:07 63° ENE 19:48:04 37° SE
Meteor 1-24 Rocket 4.0 19:40:45 10° N 19:46:20 52° ENE 19:48:37 34° SE
Cosmos 2341 Rocket 4.1 19:40:11 10° NNW 19:46:28 77° W 19:52:39 10° S
Cosmos 1461 3.6 19:42:52 10° WSW 19:46:46 51° NW 19:50:39 10° NNE
ASTEX 1 4.2 19:45:21 10° N 19:50:06 51° WNW 19:54:49 10° SSW
Cosmos 2333 Rocket 3.7 19:45:48 10° NW 19:50:50 33° WSW 19:55:51 10° SSW
Cosmos 2181 Rocket 3.9 19:45:40 10° S 19:51:52 75° E 19:58:13 10° NNE
GENESIS II 4.2 19:53:01 10° NW 19:57:09 75° NE 19:57:40 64° ESE
SL-24 R/B 4.2 19:58:07 39° SSE 19:59:48 89° WSW 20:04:44 10° NNW
Meteor 2-5 Rocket 3.7 19:54:42 10° NNW 20:00:32 87° E 20:03:38 30° SSE
MetOp-A 4.1 19:57:57 29° SSE 20:00:47 87° WSW 20:06:12 10° NNW
Cosmos 1544 Rocket 3.5 20:00:48 54° SSE 20:01:35 66° E 20:06:02 10° NNE
Cosmos 1455 Rocket 2.9 20:00:39 36° S 20:02:26 81° E 20:06:55 10° NNE
Cosmos 1190 Rocket 4.3 19:57:56 10° NNW 20:03:12 63° WSW 20:05:52 29° S
Cosmos 1805 4.1 20:04:51 36° NE 20:04:51 36° NE 20:07:26 10° NNE
Cosmos 2237 Rocket 2.6 19:58:00 10° NW 20:03:38 62° WSW 20:06:39 28° S
ERBS 3.1 20:01:32 10° NW 20:04:33 45° N 20:04:33 45° N
Cosmos 389 Rocket 4.0 20:02:26 10° NNW 20:05:34 33° W 20:07:00 23° SW
SL-08 RB Rocket 4.0 20:03:31 29° S 20:05:48 67° WSW 20:10:30 10° NNW
CZ-4C R/B 4.4 20:02:32 10° NW 20:07:29 24° N 20:13:06 10° NE
Cosmos 2218 Rocket 4.0 20:01:35 10° N 20:08:01 86° W 20:11:48 26° S
Cosmos 1980 4.4 20:07:00 10° NW 20:12:27 50° WSW 20:15:25 26° S
Cosmos 2366 rocket 4.0 20:07:57 10° N 20:14:20 83° W 20:17:47 29° S
Cosmos 1674 2.7 20:11:08 10° N 20:14:32 71° NNW 20:14:32 71° NNW
Cosmos 1850 Rocket 4.3 20:12:58 10° NNW 20:18:02 48° ENE 20:18:18 48° ENE
SL-8 R/B 3.5 20:13:52 10° W 20:18:40 77° S 20:18:53 75° SE
Cosmos 1626 Rocket 3.4 20:15:44 10° N 20:19:56 79° NE 20:19:56 79° NE
SPOT 5 3.9 20:21:03 32° NE 20:21:03 32° NE 20:24:56 10° N
Resurs 01 Rocket 2.2 20:19:37 38° SSW 20:20:59 54° W 20:25:23 10° NNW
Meteor 1-22 Rocket 4.3 20:19:01 41° SSE 20:21:10 70° E 20:27:16 10° NNE
Meteor 1-4 Rocket 4.1 20:18:04 10° NNW 20:21:15 31° W 20:22:06 27° WSW
CZ-2C R/B 3.5 20:20:05 32° S 20:22:27 62° W 20:27:55 10° NNW
Cosmos 1821 Rocket 4.1 20:17:37 10° N 20:23:39 50° ENE 20:24:15 49° E
Landsat 7 4.3 20:29:41 47° NE 20:29:41 47° NE 20:33:45 10° N
KORONAS-FOTON 4.4 20:26:44 10° NNW 20:29:55 55° NW 20:29:55 55° NW
Cosmos 2056 Rocket 3.8 20:26:57 10° SSW 20:32:21 69° WNW 20:37:46 10° NNE
DMSP B5D2-2 4.0 20:27:11 10° NNE 20:32:32 88° ESE 20:33:46 55° SSW
SL-16 R/B 2.1 20:27:14 10° NNW 20:32:57 87° WSW 20:33:46 67° SSE
SPOT 1/Viking Rocket 3.7 20:38:51 60° NE 20:38:51 60° NE 20:43:41 10° N
Cosmos 1602 Rocket 3.8 20:35:33 10° NNW 20:39:21 65° NNW 20:39:21 65° NNW
Cosmos 1420 Rocket 4.4 20:41:55 51° NE 20:41:55 51° NE 20:46:00 10° NNE
Cosmos 1766 4.3 20:44:58 44° NW 20:44:58 44° NW 20:48:04 10° N
Cosmos 1741 Rocket 4.0 20:41:01 10° NNW 20:46:11 75° NE 20:46:11 75° NE
Cosmos 2082 3.7 20:50:21 68° NE 20:50:21 68° NE 20:55:25 10° NNE
BREEZE M DEB (TANK) 3.7 20:52:42 10° W 20:54:23 38° W 20:54:23 38° W
CZ-2C R/B 2.6 20:50:29 10° NNE 20:55:49 82° NE 20:55:49 82° NE
ERS-1 Rocket 3.2 21:00:29 65° N 21:00:29 65° N 21:04:48 10° NNW
USA 234 3.7 20:57:41 40° ENE 20:59:45 54° NNE 21:06:07 10° WNW
Terra 2.9 21:02:05 36° NNE 21:02:05 36° NNE 21:05:14 10° N
Spot 2 Rocket 4.3 21:00:19 42° WSW 21:00:53 44° W 21:05:43 10° NNW
Cosmos 2227 Rocket 2.8 21:02:54 10° SW 21:08:27 55° NW 21:14:02 10° NNE
Meteor 1-21 Rocket 4.4 21:05:54 10° N 21:11:15 73° NNE 21:11:15 73° NNE
RESURS DK-1 4.1 21:09:17 10° NNW 21:11:33 31° NW 21:11:33 31° NW
Cosmos 2297 Rocket 3.2 21:14:14 10° SW 21:19:39 45° NW 21:25:06 10° NNE
Cosmos 1452 Rocket 4.4 21:28:21 46° N 21:28:21 46° N 21:32:15 10° NNE
Cosmos 1934 Rocket 4.1 21:24:09 10° N 21:29:35 72° NNW 21:29:35 72° NNW
Cosmos 2263 Rocket 4.5 21:41:34 13° NE 21:41:34 13° NE 21:42:14 10° NE
Cosmos 1943 3.8 21:31:50 10° NNW 21:36:12 52° N 21:36:12 52° N
CZ-4C R/B 3.9 21:51:54 10° NW 21:57:57 36° NNE 21:59:37 32° NE
SL-16 R/B 4.4 22:12:57 10° WNW 22:15:39 16° W 22:15:39 16° W
Terra 4.3 22:40:58 17° NW 22:40:58 17° NW 22:42:27 10° NW
USA 234 4.1 22:45:02 43° WNW 22:45:02 43° WNW 22:49:11 10° WNW
Cosmos 2082 Rocket 4.5 22:45:05 10° N 22:48:40 16° NNE 22:49:42 16° NE
Mayak 1.9 23:13:23 10° N 23:13:40 12° N 23:13:40 12° N
Cosmos 2263 Rocket 3.9 23:23:14 29° N 23:23:14 29° N 23:26:21 10° NNE
Cosmos 1833 Rocket 4.5 23:28:29 10° NNW 23:31:51 27° NNE 23:31:51 27° NNE
CZ-4C R/B 3.6 23:40:21 10° NW 23:44:45 44° NW 23:44:45 44° NW
USA 267 4.1 23:43:44 10° ENE 23:47:58 42° NE 23:47:58 42° NE
SL-16 R/B 4.1 23:50:33 27° ENE 23:50:41 27° NE 23:55:46 10° N
